{"data":{"norad_id":48282,"epoch":"2026-05-25T05:00:55.178208Z","epoch_age_seconds":63810,"freshness":"FRESH","line1":"1 48282U 21036G   26145.20897197  .00009851  00000+0  32865-3 0  9996","line2":"2 48282  53.1600  79.5440 0001127  98.2001 261.9128 15.31713227280136","mean_motion":15.31713227,"eccentricity":0.0001127,"inclination_deg":53.16,"raan_deg":79.544,"arg_perigee_deg":98.2001,"mean_anomaly_deg":261.9128,"bstar":0.00032865,"rev_number":28013,"period_min":94.01237611693,"perigee_km":469.92870251692,"apogee_km":471.47243050441,"semimajor_km":6848.8375665107,"source":"CELESTRAK","updated_at":"2026-05-25T13:38:16.672842Z"}}